www.pogodaiklimat.ru

Погода и климат >> Архив погоды >> Китай >> Синьцзян-Уйгурский автономный район >> Цзяньфан


ПОГОДА в Цзяньфане

  • Прогноз погоды в Цзяньфане
  • Монитор погоды в Цзяньфане

АРХИВ ПОГОДЫ в Цзяньфане

Время (UTC), дата Ветер
(напр.,м/с)
 
Видим.   Явления Облачность Т
(С)
Тd
(С)
f
(%)
Тe
(С)
Тes
(С)
Комфортность P
(гПа)
Po
(гПа)
Тmin
(С)
Tmax
(С)
R
(мм)
R24
(мм)
S
(см)
06 19.08 С 16
{25}
30 км 6/6 1500 м
[]
+27.6 +5.2 24 +27 +27 жарко 1011.6 924.5 +21.0
09 19.08 С 13
{25}
30 км 6/6 1500 м
[]
+29.2 +3.2 19 +27 +27 жарко 1010.0 923.5
12 19.08 С 14
{21}
30 км 9/9 1500 м
[]
+27.4 +3.2 21 +26 +26 жарко 1010.7 923.7
18 19.08 С 13
{18}
25 км ?/? +23.8 +3.2 26 +23 +23 комфорт 1012.4 924.2 +29.5
21 19.08 С 11
{20}
30 км ?/? +22.2 +4.3 31 +22 +22 комфорт 1012.1 923.5
00 20.08 С 9
{20}
30 км 9/9
[]
+21.4 +4.5 33 +22 +22 комфорт 1013.3 933.1
03 20.08 С 14
{18}
30 км 9/9
[]
+26.8 +4.6 24 +26 +26 жарко 1012.5 925.1
06 20.08 СЗ 11
{19}
30 км 9/9 1500 м
[]
+29.4 +3.4 19 +27 +27 жарко 1010.4 923.9 +21.1
09 20.08 С 11
{19}
30 км 9/9 1500 м
[]
+30.4 +2.6 17 +28 +28 жарко 1009.0 922.9
12 20.08 С 14 30 км 9/9
[]
+28.7 +2.8 19 +27 +27 жарко 1009.2 922.6
18 20.08 С 14
{19}
30 км ?/? +25.2 +4.9 27 +25 +25 комфорт 1010.1 922.5 +30.9
21 20.08 С 12
{19}
30 км ?/? +24.3 +5.6 30 +24 +24 комфорт 1010.1 922.2
00 21.08 С 11
{19}
30 км 9/9
[]
+24.1 +5.5 30 +24 +24 комфорт 1010.9 922.9
03 21.08 С 13
{18}
30 км 8/8
[]
+26.6 +5.5 26 +26 +26 жарко 1011.2 923.9
06 21.08 С 5
{18}
30 км 9/9
[]
+28.4 +4.7 22 +27 +28 жарко 1010.0 923.3 +23.8
09 21.08 З 2 26 км 9/9 1500 м
[]
+31.6 +4.4 18 +29 +30 жарко 1007.7 922.1
12 21.08 Ю 2 28 км 9/9 1500 м
[]
+30.9 +4.6 19 +29 +29 жарко 1007.2 921.4
18 21.08 С 5 30 км ?/? +26.0 +4.5 25 +25 +25 комфорт 1007.9 920.7 +32.5
21 21.08 С 4 30 км н/о +25.3 +4.4 26 +25 +25 комфорт 1007.3 920.0
00 22.08 С 5 26 км слаб. дождь 9/9
[]
+21.6 +13.3 59 +24 +24 комфорт 1009.5 920.9 0.0
03 22.08 С 7 30 км {дождь} 9/9
[]
+22.6 +13.1 55 +26 +26 жарко 1009.8 921.5
06 22.08 Ю 3 25 км {дождь} 9/9
[]
+29.2 +8.3 27 +29 +30 жарко 1007.8 928.8 +21.1 0.0
09 22.08 ЮЗ 4 29 км 3/3 1500 м
[]
+31.5 +6.5 21 +30 +34 жарко 1005.7 920.2
12 22.08 СЗ 4 29 км 8/8 1500 м
[]
+30.4 +7.0 23 +29 +29 жарко 1005.1 919.4
18 22.08 С 4 28 км ?/? +24.0 +6.3 32 +24 +24 комфорт 1005.6 918.0 +32.1
21 22.08 С 4 28 км н/о +22.5 +7.1 37 +23 +23 комфорт 1005.3 917.4
00 23.08 С 5 30 км ясно +22.3 +6.5 36 +23 +23 комфорт 1006.8 918.7
03 23.08 Ю 5 26 км ясно +30.6 +7.7 24 +30 +34 жарко 1006.3 920.5
06 23.08 З 3 25 км ясно +33.1 +7.9 21 +32 +45 жарко 1005.0 920.0 +21.7
09 23.08 С 2 28 км 4/4 1500 м
[]
+33.9 +7.1 19 +32 +37 жарко 1003.5 918.8
12 23.08 С 8 30 км 3/3 1500 м
[]
+33.8 +1.6 13 +31 +31 жарко 1003.2 918.5
18 23.08 С 10 30 км ?/? +28.5 +5.4 23 +27 +27 жарко 1005.3 919.0 +35.0
21 23.08 С 12
{18}
30 км ?/? +26.7 +5.6 26 +26 +26 жарко 1005.4 918.6
00 24.08 С 13
{20}
30 км 1/1
[]
+24.8 +7.5 33 +25 +25 комфорт 1006.8 919.4
03 24.08 С 16 30 км ясно +29.3 +4.0 20 +27 +27 жарко 1007.0 920.8
06 24.08 С 12
{22}
30 км 3/3 1500 м
[]
+33.1 +3.9 16 +30 +30 жарко 1005.5 920.4 +24.6
09 24.08 С 16
{19}
29 км 3/3 1500 м
[]
+33.5 +4.3 16 +31 +31 жарко 1003.9 919.1
12 24.08 С 16
{21}
30 км 3/3 1500 м
[]
+30.9 +3.0 17 +28 +28 жарко 1004.8 919.2
18 24.08 С 20
{26}
30 км ?/? +25.2 +5.4 28 +25 +25 комфорт 1007.3 919.9 +34.6
21 24.08 С 21
{30}
30 км ?/? +20.7 +7.0 41 +20 +20 1009.0 920.2
00 25.08 С 20
{30}
28 км слаб. дождь 9/9
[]
+18.5 +7.9 50 +17 +17 1011.1 921.5 0.0
03 25.08 С 19
{28}
30 км {дождь} 9/9
[]
+22.4 +6.2 35 +23 +23 комфорт 1011.5 923.0
06 25.08 С 17
{25}
30 км {дождь} ясно +27.7 +5.3 24 +27 +27 жарко 1009.9 923.0 +18.2 0.0
09 25.08 С 19
{24}
30 км ясно +29.6 +2.0 17 +27 +27 жарко 1009.0 922.7
12 25.08 С 17
{24}
30 км ясно +28.0 -1.0 15 +25 +25 комфорт 1009.5 922.7
18 25.08 С 9
{21}
30 км ?/? +24.7 +0.9 21 +23 +23 комфорт 1011.5 923.6 +29.9
21 25.08 С 8
{19}
24 км ?/? +24.3 +3.6 26 +24 +24 комфорт 1011.6 923.6
00 26.08 С 9 30 км слаб. дождь 9/9
[]
+19.9 +9.8 52 +20 +20 1013.1 923.7 0.0
03 26.08 С 10 30 км в посл. час дождь 9/9
[]
+19.9 +8.6 48 +20 +20 1014.2 924.7

 

Местоположение метеостанции Цзяньфан (Синьцзян-Уйгурский автономный район, Китай): широта 43.22 долгота 91.73 высота над уровнем моря 792 м.

В архиве по умолчанию представлена погода в Цзяньфане за последнюю неделю. Архивные данные за месяц целиком и за предыдущие месяцы, начиная с января 2011 года, Вы можете получить, выбрав интересующий диапазон дат из раскрывающегося списка и нажав кнопку "Ввод!".


*Определитесь, кто Вы:
робот инопланетянин человек

Внимание! Время в таблицах - всемирное. Для получения местного времени необходимо прибавить поправку, которая равна 8 ч.

Смотрите также архив погоды в соседних городах и на ближайших метеорологических станциях:

Погода в Хами (Синьцзян-Уйгурский автономный район, Китай) (152 км)
Погода в Цитае (Синьцзян-Уйгурский автономный район, Китай) (195 км)
Погода в Турфане (Синьцзян-Уйгурский автономный район, Китай) (208 км)
Погода в Бейта Шан (Синьцзян-Уйгурский автономный район, Китай) (258 км)
Погода в Наомаоху (Синьцзян-Уйгурский автономный район, Китай) (278 км)
Погода в Байтаге (Монголия) (323 км)
Погода в Урумчи (Синьцзян-Уйгурский автономный район, Китай) (335 км)
Погода в Тонхиле (Монголия) (385 км)
Погода в Жаргаланте (Монголия) (415 км)
Погода в Дуньхуане (Ганьсу, Китай) (420 км)

Пояснения к столбцам:

Ветер - указаны скорость ветра в м/с - средняя за 10 мин, порывы в срок и между сроками (в фигурных скобках) и направление, откуда дует ветер: С - северный, СВ - северо-восточный, В - восточный, ЮВ - юго-восточный, Ю - южный, ЮЗ - юго-западный, З - западный, СЗ - северо-западный.
Видимость - горизонтальная дальность видимости в метрах или километрах. При видимости от 1 до 10 км при отсутствии осадков обычно наблюдается дымка, при ухудшении видимости до 1 км и менее - туман. В сухую погоду видимость может ухудшаться дымом, пылью или мглою.
Явления - указаны атмосферные явления, наблюдавшиеся в срок или в последний час перед сроком; фигурными скобками обозначены явления, наблюдавшиеся между сроками (за 1-3 часа до срока); квадратными скобками обозначены град или гололедные отложения с указанием их диаметра в мм.
Облачность - указаны через наклонную черту общая и нижняя облачность в баллах и высота нижней границы облаков в метрах; квадратными скобками обозначены формы облаков: Ci - перистые, Cs - перисто-слоистые, Cc - перисто-кучевые, Ac - высококучевые, As - высокослоистые, Sc - слоисто-кучевые, Ns - слоисто-дождевые, Cu - кучевые, Cb - кучево-дождевые. Подробнее классификацию облаков см. в Атласе облаков (PDF).
T - Температура воздуха - температура, измеренная на высоте 2 м над землей.
Td - Температура точки росы - температура, при понижении до которой содержащийся в воздухе водяной пар достигнет насыщения.
f - Относительная влажность воздуха - влажноcть воздуха, измеренная на высоте 2 м над землей.
Te - Эффективная температура - температура, которую ощущает одетый по сезону человек в тени. Характеристика душности погоды. При расчете учитывается влияние влажности воздуха и скорости ветра на теплоощущения человека.
Tes - Эффективная температура на солнце - температура, которую ощущает человек, с поправкой на солнечный нагрев. Характеристика знойности погоды. Зависит от высоты солнца над горизонтом, облачности и скорости ветра. Ночью, в пасмурную погоду, а также при ветре 12 м/с и более поправка равна нулю.
P - Атмосферное давление - приведенное к уровню моря атмосферное давление.
Po - Атмосферное давление - измеренное на уровне метеостанции атмосферное давление.
Tmin - Минимальная температура - минимум температуры воздуха на высоте 2 м над землей.
Tmax - Максимальная температура - максимум температуры воздуха на высоте 2 м над землей.
R - Количество осадков - Количество выпавших осадков за период времени, мм. При наведении курсора мыши на число - период времени, за который выпало указанное количество осадков.
R24 - Количество осадков - Количество выпавших осадков за 24 часа, мм.
S - Снежный покров - Высота снежного покрова, см. При наведении курсора мыши на число - состояние снежного покрова и степень покрытия местности в баллах.